Temp
20 21 22 22 22 22 22 22 22 22 22 22 22 22 22 22 21 21 21 20 20 20 20 20 20 20 21 22 20 19 20 20 21 23 22 21 20 20 20 19 19 19 19
19 21 20 21 22 22 21 22 21 22 22 22 22 22 22 22 22 21 21 21 20 21 21 20 20 21 20 20 20 20 20 20 20 20 22 21 20 20 19 19 19 19 19
19 19 18 20 21 22 22 21 22 22 22 22 22 22 22 22 22 22 21 21 21 21 21 21 21 21 21 20 20 19 20 19 19 19 22 21 20 18 18 18 19 19 19
17 18 18 19 20 21 22 21 21 21 21 22 22 22 22 22 22 22 22 21 21 21 21 20 21 21 21 20 20 20 20 19 19 19 20 21 20 19 18 18 18 18 18
17 17 17 18 19 21 21 21 21 21 21 21 21 21 22 22 22 22 22 21 21 21 20 21 21 21 21 21 21 20 19 19 19 18 19 19 19 18 18 19 18 19 18
18 17 18 18 18 18 18 19 19 20 20 20 20 21 21 21 21 22 22 21 20 21 21 21 21 21 21 21 21 20 20 19 18 18 19 19 19 18 18 20 19 18 19
18 17 18 18 18 18 17 18 18 18 18 17 18 18 19 19 20 21 21 21 21 21 22 22 22 22 21 21 21 20 20 20 20 19 20 20 21 20 20 19 18 18 19
17 17 18 17 17 17 17 18 18 17 18 18 17 18 18 18 19 19 20 20 21 23 22 22 22 22 21 21 21 20 20 20 19 19 20 21 20 20 19 20 19 18 18
17 16 16 17 17 17 17 17 17 17 17 17 18 18 18 18 19 19 20 19 20 20 21 21 22 22 21 22 21 21 21 20 21 20 20 20 20 20 19 20 20 18 19
16 16 16 17 17 16 16 17 17 17 17 18 17 17 17 18 17 19 19 18 18 18 19 21 22 21 21 21 21 21 21 22 21 21 20 21 21 20 19 19 21 21 22
16 17 17 16 16 16 16 16 16 17 17 17 17 17 18 18 17 18 18 18 17 18 19 19 21 21 21 22 20 20 21 22 21 21 21 21 21 20 19 19 19 20 21
17 17 17 17 17 17 17 16 16 17 17 16 16 15 16 16 17 17 17 17 18 18 18 19 19 19 18 18 20 22 22 21 21 21 22 22 21 21 20 20 19 19 20
17 17 16 17 17 17 17 17 17 17 16 16 15 15 15 15 16 16 16 17 17 18 18 18 19 19 18 18 18 19 19 16 19 19 21 21 22 21 20 18 18 18 17
17 17 17 17 17 17 18 18 18 18 17 16 16 14 14 14 14 15 15 15 15 16 16 17 17 17 17 16 16 16 17 17 17 17 18 18 19 18 18 19 18 17 17
17 17 17 18 17 17 16 17 17 16 17 18 18 18 18 17 14 14 15 15 15 15 15 15 15 15 14 15 15 15 16 17 15 16 16 17 17 18 17 18 17 17 16
17 18 17 18 18 18 18 18 17 17 17 16 16 16 16 16 16 15 15 15 15 15 16 17 17 16 15 14 14 15 15 15 15 15 16 16 16 16 16 16 16 17 18
16 17 18 18 18 19 18 19 20 17 16 16 16 16 16 16 16 15 15 13 12 15 16 15 14 14 13 13 14 14 14 14 15 15 16 15 16 16 16 15 16 17 17
16 16 17 17 18 18 18 19 19 20 20 18 16 16 15 15 15 15 15 15 15 14 13 13 13 13 13 13 13 13 13 13 14 14 15 15 15 15 15 15 15 16 16
16 17 17 17 17 17 18 18 19 19 19 19 14 15 15 14 14 14 14 16 15 14 13 13 13 13 12 12 12 12 12 13 13 13 14 14 14 15 15 15 15 15 15
16 16 17 17 18 18 19 19 19 19 19 19 18 17 13 14 15 16 15 15 15 15 15 14 12 12 12 12 12 12 12 12 12 12 12 13 13 13 13 13 14 14 14
17 17 17 18 18 19 19 19 19 19 19 19 18 15 14 15 18 17 16 15 15 13 14 14 14 12 12 12 12 12 12 12 12 12 12 12 12 12 13 12 12 12 12
17 17 18 19 19 19 19 18 19 19 19 19 18 15 15 14 17 17 16 16 15 15 15 15 15 15 14 14 13 14 14 13 12 13 13 13 13 13 13 12 12 12 12
17 17 17 18 18 18 18 19 19 19 19 19 18 18 17 17 17 17 16 16 15 15 15 14 15 15 14 14 14 14 15 14 14 14 15 15 15 14 14 14 14 13 12
17 17 18 18 18 18 19 18 18 18 18 18 18 17 17 17 17 16 16 16 15 15 15 15 15 15 15 14 14 14 14 13 13 14 13 15 15 15 15 15 15 14 13
17 17 18 18 18 18 19 18 18 18 18 18 18 17 18 17 17 17 16 16 16 16 15 15 15 15 14 14 15 14 14 14 13 13 13 14 14 14 14 15 15 15 15
18 17 18 18 18 18 18 19 19 19 19 18 18 17 17 17 17 16 16 16 15 16 15 15 15 14 14 15 14 14 14 14 13 13 12 13 14 15 14 14 14 14 14
Height
723 724 725 726 729 732 734 736 741 746 751 754 759 761 759 764 769 773 777 780 783 785 788 790 793 795 796 799 801 802 804 806 804 801 803 803 802 801 800 799 799 799 799
723 722 722 723 723 725 727 731 735 739 743 746 750 756 759 760 762 766 769 771 774 776 779 783 787 790 790 792 794 796 799 800 802 801 799 801 799 798 798 798 798 798 797
721 719 717 716 718 718 720 724 727 731 735 738 743 746 746 750 750 750 757 764 767 771 774 775 778 783 786 787 787 789 792 795 797 797 796 797 796 796 796 796 796 795 794
718 715 711 709 709 711 713 716 719 722 727 730 734 738 740 742 744 743 746 753 761 765 768 771 773 775 778 780 782 784 786 789 791 792 792 794 793 794 794 794 793 793 794
715 713 709 705 702 703 706 710 712 715 719 723 728 730 733 736 738 738 737 741 746 756 761 765 767 770 772 774 776 779 781 784 787 789 788 789 791 790 792 792 791 792 791
712 710 707 704 703 702 703 706 708 712 714 718 721 724 728 730 730 731 732 732 741 745 752 757 763 763 767 769 771 772 776 780 781 786 786 785 784 786 787 788 788 790 790
712 711 707 706 705 705 707 709 712 713 716 718 721 724 726 727 726 726 726 723 726 736 743 749 756 759 760 763 766 769 771 774 777 778 782 782 781 782 784 784 784 784 785
714 713 710 708 707 708 709 711 713 715 718 720 722 723 724 724 724 725 727 726 720 722 732 740 748 753 756 756 762 763 765 768 771 772 776 777 779 778 780 780 779 779 781
717 716 711 709 708 707 708 711 713 714 717 717 718 718 720 721 719 717 722 725 728 726 722 731 740 747 750 751 757 758 763 762 764 767 768 772 774 776 777 778 776 777 775
723 719 715 713 711 708 710 711 714 714 717 718 719 718 716 717 716 715 716 720 723 728 731 728 730 740 744 749 751 754 757 759 759 761 763 765 766 768 771 772 772 770 770
722 719 715 713 712 711 711 713 714 715 715 716 716 717 716 715 711 711 712 713 719 724 728 729 724 734 739 743 747 748 748 753 756 756 758 760 762 762 762 763 766 767 766
720 717 717 716 715 713 712 713 713 715 715 715 715 713 710 711 707 706 708 714 712 720 723 725 727 731 737 740 742 742 743 749 749 749 750 752 756 758 758 759 759 761 761
721 721 720 720 717 714 713 709 713 715 716 713 708 705 708 709 706 707 709 710 711 715 720 722 724 727 731 736 739 740 740 746 746 746 747 748 749 751 753 753 754 753 753
721 719 719 719 718 716 717 717 716 715 713 712 712 712 715 715 712 710 710 710 711 715 719 722 724 726 730 733 737 740 737 735 740 741 745 745 746 748 747 748 748 746 747
722 723 722 720 718 719 720 721 721 719 717 716 719 717 715 715 714 712 712 714 715 717 721 722 723 726 729 731 731 729 727 726 735 741 743 742 742 743 743 743 741 742 741
724 723 722 720 719 719 720 721 720 720 720 719 720 719 717 715 714 714 718 720 718 719 720 721 724 724 725 726 728 727 727 730 734 737 739 738 737 737 738 736 736 734 732
723 721 719 719 718 718 719 719 720 721 721 720 719 719 719 718 719 718 720 721 721 722 722 723 722 726 726 728 727 727 729 729 730 731 730 731 732 732 732 732 730 728 725
722 720 718 717 716 717 719 720 720 719 718 720 721 722 722 721 721 721 722 722 722 722 724 727 728 728 727 727 725 726 726 727 727 727 727 725 725 727 728 728 727 724 722
724 722 720 720 722 724 721 719 717 717 719 718 720 721 722 723 724 724 724 725 725 725 726 727 727 726 728 726 723 724 725 723 726 725 725 724 723 723 722 723 723 722 719
724 722 721 721 721 720 718 718 718 718 717 717 718 720 722 724 724 725 726 725 727 728 728 726 725 724 726 726 726 725 725 723 725 723 724 723 722 721 720 719 719 719 717
723 722 721 721 721 721 719 718 718 718 719 720 720 720 721 724 723 725 725 726 727 727 727 727 731 729 728 727 725 729 727 726 726 725 726 724 723 722 720 719 717 716 715
721 721 720 719 720 720 719 720 721 720 721 720 720 721 721 723 724 725 725 725 726 727 727 729 730 730 729 727 727 729 729 729 730 728 727 726 725 723 721 720 718 717 716
720 719 719 719 719 719 719 719 719 720 720 720 720 720 721 722 721 721 721 723 725 727 728 728 727 726 728 728 726 728 729 730 730 728 727 725 724 723 721 720 719 719 719
719 718 718 717 718 719 719 719 721 721 721 720 720 719 719 719 719 720 721 722 722 724 724 725 726 727 726 724 725 727 727 726 727 726 725 723 722 721 721 720 719 720 721
716 716 716 716 716 717 717 718 719 718 718 718 718 718 717 716 715 716 717 718 719 720 721 723 723 722 721 722 722 724 724 723 723 723 722 722 721 720 720 720 719 719 720
712 713 714 714 713 714 714 714 714 714 714 715 715 715 715 716 716 714 714 714 715 716 716 716 717 718 719 720 720 721 721 720 719 719 719 719 719 717 718 718 719 720 720
Wind_Speed
4 17 25 28 30 28 31 30 31 29 26 25 25 27 28 26 25 26 24 20 22 21 20 20 18 18 18 18 17 17 17 16 14 19 13 12 9 9 9 7 9 10 10
10 11 13 17 22 25 27 29 25 30 30 31 29 27 22 22 22 23 22 20 21 21 20 19 18 17 18 16 16 17 16 17 16 15 16 12 8 7 7 8 7 10 11
12 15 16 17 16 21 23 28 29 28 30 28 28 30 27 26 27 26 23 21 20 20 19 20 19 18 18 17 18 17 19 19 19 15 15 9 6 5 6 8 9 11 12
11 14 15 20 22 18 20 25 30 28 27 27 27 28 27 26 27 25 22 20 18 18 18 18 18 19 19 18 16 18 19 19 14 14 12 12 9 6 8 7 8 12 12
9 8 10 10 14 16 15 21 25 27 28 24 24 24 24 26 26 25 23 22 21 20 18 18 19 19 19 18 15 15 18 18 12 12 12 9 9 7 7 6 7 7 8
11 8 8 12 9 7 6 14 21 23 23 20 23 24 24 25 27 29 25 24 23 21 20 19 19 20 20 18 18 17 15 16 14 11 12 12 13 11 10 10 8 4 4
10 9 10 8 7 5 5 5 2 3 7 9 8 8 14 20 26 29 28 27 29 24 21 19 18 17 20 16 18 17 17 17 18 14 16 15 12 13 11 10 9 9 8
7 7 8 8 8 7 5 5 6 7 10 12 14 16 15 14 16 24 27 24 30 30 24 20 19 18 18 18 16 17 17 16 21 19 18 15 13 9 11 9 9 9 9
6 6 8 4 5 8 9 6 5 6 9 10 11 13 14 15 15 16 25 22 11 15 23 19 18 21 18 19 17 16 15 16 17 20 20 18 15 15 12 10 10 9 8
4 4 4 4 5 5 4 8 9 9 9 8 10 9 10 11 15 18 19 21 14 13 11 13 15 16 15 17 20 17 16 17 16 13 17 20 21 21 21 18 15 14 11
5 6 9 9 8 8 6 3 7 10 7 6 6 5 5 7 7 11 16 17 18 14 14 13 12 16 20 23 22 20 19 16 13 13 13 14 14 15 17 21 20 19 17
5 8 8 8 8 8 7 8 6 1 3 5 7 8 10 7 5 0 15 17 14 14 14 12 10 6 5 10 15 19 21 21 15 14 14 15 16 16 16 17 18 20 22
5 5 6 6 8 10 12 13 10 5 6 7 12 15 14 14 14 7 5 8 13 13 10 11 12 17 21 16 15 16 16 15 12 11 14 15 15 15 13 14 16 17 21
4 6 6 6 7 7 8 9 9 10 9 9 10 10 8 10 13 13 11 10 8 6 7 9 13 13 14 15 15 15 15 8 8 10 16 16 15 13 13 14 13 11 15
2 3 3 3 6 6 6 6 6 7 8 8 6 6 7 9 10 13 10 7 7 7 7 5 3 2 3 4 6 7 11 9 15 22 21 18 17 16 14 14 13 11 12
3 1 2 1 2 2 2 3 5 6 7 8 8 8 11 12 12 12 10 7 7 8 6 5 5 5 5 5 3 2 2 5 11 13 14 13 13 15 18 17 17 16 14
4 4 2 2 3 3 2 2 2 1 3 4 6 6 8 9 10 9 8 11 10 7 6 5 6 3 3 2 1 1 2 3 5 9 11 11 13 13 13 15 14 13 12
3 4 4 3 3 4 3 3 4 3 2 3 4 5 4 5 7 8 9 8 8 10 8 6 4 3 3 3 4 4 5 5 5 6 7 8 10 12 14 14 15 14 12
3 1 2 2 2 2 1 3 3 2 3 3 4 8 7 4 4 6 9 6 6 6 5 5 5 5 5 4 5 4 5 5 5 5 5 5 6 6 9 12 13 12 12
4 1 2 2 1 1 0 1 3 2 1 2 4 5 9 7 3 2 4 5 5 5 6 7 6 6 5 7 8 7 7 7 7 6 5 6 6 6 7 8 7 10 11
4 3 4 3 3 2 2 2 2 2 3 4 4 4 10 7 4 4 5 5 5 5 4 4 3 3 4 5 6 6 7 8 8 8 8 8 8 7 6 6 6 6 6
6 5 6 4 4 3 2 2 2 2 2 2 1 1 5 4 4 5 6 6 6 6 5 4 3 2 2 3 3 4 4 4 4 5 5 6 6 6 6 7 6 6 5
6 6 7 5 4 3 3 3 3 2 2 2 2 3 4 6 4 4 4 5 6 6 5 4 3 2 2 1 0 1 2 2 3 4 4 5 5 5 4 5 5 7 7
7 7 6 5 4 5 4 3 2 2 2 2 2 2 3 5 6 5 5 6 7 7 6 5 6 6 5 3 3 3 3 3 3 3 3 4 4 4 3 3 4 5 5
7 6 5 7 9 9 8 9 8 6 4 3 2 2 3 4 6 7 8 7 8 8 8 8 7 5 5 6 5 4 4 5 5 5 4 4 5 5 4 3 2 1 2
7 8 6 3 4 5 6 5 6 7 8 8 6 5 5 5 6 6 7 9 9 10 10 10 11 10 8 8 8 7 6 4 4 6 6 6 5 7 6 5 4 4 4
Wind_Direction
265 239 229 230 231 227 222 223 222 222 222 218 222 225 216 215 216 215 219 219 222 228 227 229 230 223 227 239 237 236 235 235 247 265 267 272 280 275 284 269 242 230 217
295 256 258 239 236 229 225 227 223 220 220 224 223 229 226 213 208 212 215 215 218 222 221 222 230 225 227 227 225 230 235 234 236 252 264 264 254 264 261 259 244 234 221
304 292 270 260 245 240 234 223 224 224 221 223 222 224 216 214 206 205 209 215 221 225 219 215 218 221 227 227 225 231 232 236 237 244 262 255 249 253 260 258 239 226 218
333 312 288 274 264 250 241 227 219 216 221 225 225 225 223 217 213 206 206 210 218 222 219 220 219 216 217 221 223 227 236 231 222 224 238 250 246 248 257 255 252 242 239
353 349 9 350 277 262 230 224 210 205 211 216 219 220 225 225 219 209 202 202 201 208 213 217 217 218 218 217 217 221 228 218 217 222 222 224 240 219 230 240 242 249 239
348 348 8 18 33 44 142 181 194 194 192 200 215 224 224 226 225 224 210 195 198 197 203 208 218 222 227 225 227 216 212 213 212 221 230 226 231 229 227 228 232 232 252
343 347 357 4 27 26 32 46 54 211 206 206 225 226 235 237 235 230 221 202 193 196 198 202 212 220 218 217 221 219 219 228 225 220 233 234 233 225 230 222 219 214 224
6 350 0 5 13 345 311 289 273 251 240 238 242 247 250 253 247 242 231 213 197 195 196 203 210 212 215 205 212 209 213 219 226 224 237 244 241 235 225 231 224 224 239
36 5 21 19 350 360 0 319 265 243 240 238 241 231 233 245 231 218 219 211 213 203 194 200 215 220 218 212 211 209 218 216 229 231 229 239 243 245 239 227 224 214 233
55 51 65 69 62 48 347 312 289 262 250 238 241 236 219 224 233 217 208 210 204 220 230 220 221 226 225 225 209 212 216 226 217 216 231 241 244 246 245 233 243 234 242
62 59 54 52 51 47 48 358 278 248 230 223 212 183 182 210 223 227 216 209 217 221 232 240 227 225 232 238 224 220 220 228 228 227 238 241 240 233 232 231 236 244 253
40 45 47 45 49 45 55 51 52 117 155 123 117 88 69 64 69 182 203 205 192 215 215 216 188 173 241 249 245 249 248 251 233 228 227 235 242 245 241 238 235 240 248
30 48 44 45 37 40 36 46 53 58 55 78 76 63 55 61 66 74 154 185 188 184 207 214 236 249 252 258 253 246 231 236 239 244 254 257 254 259 252 244 245 245 249
32 11 9 29 44 46 46 47 54 61 60 56 62 71 72 60 62 72 77 84 90 151 187 192 200 203 207 212 223 227 207 208 247 264 250 260 263 258 250 249 248 235 249
2 6 14 36 64 62 61 52 63 59 76 74 70 80 87 75 59 65 71 89 114 129 136 127 123 172 211 245 252 277 305 290 272 263 259 255 249 251 246 253 247 247 246
305 312 14 14 52 61 50 85 66 81 89 94 96 93 87 83 71 68 66 72 90 105 109 101 102 102 81 60 21 6 233 230 244 244 252 248 244 244 249 243 249 244 246
300 296 309 312 316 323 321 296 241 119 133 108 109 96 91 86 68 59 59 71 78 71 73 80 78 62 67 101 111 114 209 240 273 269 256 253 261 257 253 244 241 251 256
294 296 300 303 331 336 288 233 224 219 176 177 197 175 133 90 67 61 68 71 71 65 71 64 50 33 28 23 23 0 345 329 304 289 285 270 268 274 268 259 258 255 252
270 322 148 142 228 289 36 169 188 234 251 211 187 197 187 150 94 73 74 61 69 80 91 91 84 60 35 31 45 32 31 26 6 345 327 317 300 279 271 271 270 265 264
240 235 159 166 180 283 8 95 107 115 134 187 202 190 188 178 184 153 127 103 93 82 79 77 72 74 66 55 52 51 50 44 30 30 16 4 350 333 313 305 294 290 279
237 216 196 184 186 160 120 91 99 114 105 94 101 157 183 189 190 186 168 153 143 133 109 99 96 61 57 55 50 34 34 38 38 39 32 28 20 3 345 333 329 316 305
229 221 199 181 146 147 116 113 99 77 44 22 66 126 185 203 213 198 180 169 171 166 160 154 148 123 102 79 73 47 42 39 26 22 19 18 16 21 25 26 15 18 20
222 199 187 185 177 150 118 98 94 72 32 342 312 249 215 224 223 206 183 181 187 192 198 200 199 195 201 200 127 359 346 342 343 354 354 3 13 20 28 44 63 58 63
216 217 210 207 210 222 215 196 209 227 291 338 323 288 255 239 234 221 213 207 202 207 213 223 227 227 228 227 230 242 255 265 274 293 314 330 335 340 359 48 71 78 84
222 225 244 249 235 228 228 228 231 238 242 264 288 313 316 285 263 249 231 224 226 226 224 227 236 245 237 230 229 238 259 297 273 259 278 291 300 292 274 278 301 271 208
210 209 223 223 210 222 239 250 248 260 250 246 251 261 267 276 277 262 244 237 242 240 236 231 236 243 246 243 232 233 261 303 310 285 274 279 292 289 282 261 220 240 245